Location: ????? ??????
(37.8317°N, 23.8750°E)
Time: 12:51:21
(UTC+00:00)

Helios 1A Rocket - Pass Details

Date: 20 January 2021
Orbit: 562 x 586 km, 98.3° (Epoch: 03 March)

Event Time Altitude Azimuth Distance (km) Brightness Sun altitude
Rises 16:56:32 0° 152° (SSE) 2,791 6.3 -16.1°
Reaches altitude 10° 16:58:43 10° 146° (SSE) 1,898 5.3 -16.5°
Maximum altitude 17:02:41 47° 73° (ENE) 782 3.1 -17.3°
Drops below altitude 10° 17:06:40 10° 360° (N) 1,917 5.5 -18.0°
Sets 17:08:53 0° 354° (N) 2,822 6.4 -18.5°
